| time (UTC) | temp F | wind direction | speed MPH | gust MPH | rain 1hr in | rain 24hr in | rain mn in | humidity % | barometer mb |
| 20260505034231 | 74 | 38 | 8.0 | 12.0 | 0.00 | 0.00 | 0.00 | 67 | 1007.0 |
| 20260505033531 | 74 | 53 | 14.0 | 12.0 | 0.00 | 0.00 | 0.00 | 67 | 1007.0 |
| 20260505032831 | 74 | 5 | 5.0 | 12.0 | 0.00 | 0.00 | 0.00 | 66 | 1007.4 |
| 20260505032131 | 74 | 359 | 5.0 | 12.0 | 0.00 | 0.00 | 0.00 | 66 | 1007.4 |
| 20260505031431 | 74 | 29 | 5.0 | 12.0 | 0.00 | 0.00 | 0.00 | 66 | 1007.4 |
| 20260505030731 | 74 | 14 | 5.0 | 12.0 | 0.00 | 0.00 | 0.00 | 66 | 1007.7 |
| 20260505030031 | 75 | 42 | 5.0 | 10.0 | 0.00 | 0.00 | 0.00 | 66 | 1007.7 |
| 20260505025331 | 75 | 354 | 5.0 | 10.0 | 0.00 | 0.00 | 0.00 | 65 | 1007.4 |
| 20260505024631 | 75 | 50 | 2.0 | 10.0 | 0.00 | 0.00 | 0.00 | 65 | 1007.7 |
| 20260505023932 | 75 | 72 | 11.0 | 10.0 | 0.00 | 0.00 | 0.00 | 65 | 1007.4 |
| 20260505023231 | 75 | 23 | 11.0 | 10.0 | 0.00 | 0.00 | 0.00 | 65 | 1007.4 |
| 20260505022531 | 75 | 67 | 8.0 | 10.0 | 0.00 | 0.00 | 0.00 | 65 | 1007.0 |
| 20260505021832 | 75 | 30 | 5.0 | 10.0 | 0.00 | 0.00 | 0.00 | 64 | 1007.0 |
| 20260505020432 | 75 | 10 | 2.0 | 10.0 | 0.00 | 0.00 | 0.00 | 63 | 1007.0 |
| 20260505015732 | 75 | 19 | 5.0 | 10.0 | 0.00 | 0.00 | 0.00 | 63 | 1007.0 |
| 20260505015031 | 76 | 13 | 2.0 | 10.0 | 0.00 | 0.00 | 0.00 | 63 | 1007.0 |
| 20260505013630 | 76 | 34 | 0.0 | 10.0 | 0.00 | 0.00 | 0.00 | 62 | 1007.4 |
| 20260505012931 | 76 | 35 | 2.0 | 12.0 | 0.00 | 0.00 | 0.00 | 62 | 1007.4 |
| 20260505011531 | 77 | 11 | 5.0 | 19.0 | 0.00 | 0.00 | 0.00 | 61 | 1007.0 |
| 20260505010831 | 77 | 56 | 8.0 | 19.0 | 0.00 | 0.00 | 0.00 | 61 | 1007.0 |
| 20260505005431 | 77 | 5 | 0.0 | 19.0 | 0.00 | 0.00 | 0.00 | 60 | 1007.0 |
| 20260505004730 | 78 | 346 | 8.0 | 19.0 | 0.00 | 0.00 | 0.00 | 60 | 1007.0 |
| 20260505004030 | 78 | 30 | 8.0 | 19.0 | 0.00 | 0.00 | 0.00 | 60 | 1007.0 |
| 20260505002630 | 78 | 18 | 5.0 | 21.0 | 0.00 | 0.00 | 0.00 | 59 | 1007.0 |
| 20260505001931 | 78 | 30 | 5.0 | 21.0 | 0.00 | 0.00 | 0.00 | 59 | 1007.4 |
| 20260505000532 | 78 | 2 | 5.0 | 21.0 | 0.00 | 0.00 | 0.00 | 58 | 1007.4 |
| 20260504235831 | 79 | 119 | 11.0 | 21.0 | 0.00 | 0.00 | 0.00 | 58 | 1007.4 |
| 20260504235133 | 79 | 31 | 5.0 | 21.0 | 0.00 | 0.00 | 0.00 | 58 | 1007.4 |
| 20260504234433 | 79 | 16 | 8.0 | 21.0 | 0.00 | 0.00 | 0.00 | 58 | 1007.7 |
| 20260504233733 | 79 | 216 | 8.0 | 25.0 | 0.00 | 0.00 | 0.00 | 57 | 1007.4 |
| 20260504233033 | 79 | 357 | 5.0 | 25.0 | 0.00 | 0.00 | 0.00 | 58 | 1007.7 |
| 20260504232333 | 79 | 27 | 5.0 | 25.0 | 0.00 | 0.00 | 0.00 | 57 | 1007.7 |
| 20260504231633 | 80 | 356 | 19.0 | 25.0 | 0.00 | 0.00 | 0.00 | 57 | 1007.4 |
| 20260504230933 | 80 | 9 | 5.0 | 25.0 | 0.00 | 0.00 | 0.00 | 56 | 1007.4 |
| 20260504225533 | 80 | 11 | 14.0 | 25.0 | 0.00 | 0.00 | 0.00 | 56 | 1008.0 |
| 20260504224833 | 80 | 358 | 5.0 | 25.0 | 0.00 | 0.00 | 0.00 | 56 | 1008.0 |
| 20260504224133 | 80 | 0 | 34.0 | 25.0 | 0.00 | 0.00 | 0.00 | 56 | 1008.0 |
| 20260504223433 | 80 | 10 | 8.0 | 19.0 | 0.00 | 0.00 | 0.00 | 56 | 1008.0 |
| 20260504222733 | 81 | 315 | 14.0 | 19.0 | 0.00 | 0.00 | 0.00 | 55 | 1008.0 |
| 20260504222033 | 81 | 39 | 5.0 | 19.0 | 0.00 | 0.00 | 0.00 | 56 | 1008.0 |
| 20260504221333 | 81 | 14 | 5.0 | 19.0 | 0.00 | 0.00 | 0.00 | 55 | 1008.4 |
| 20260504220633 | 81 | 285 | 14.0 | 19.0 | 0.00 | 0.00 | 0.00 | 55 | 1008.0 |
| 20260504215933 | 81 | 28 | 5.0 | 19.0 | 0.00 | 0.00 | 0.00 | 55 | 1008.4 |
| 20260504214533 | 82 | 34 | 5.0 | 19.0 | 0.00 | 0.00 | 0.00 | 53 | 1008.4 |
| 20260504213833 | 82 | 17 | 8.0 | 19.0 | 0.00 | 0.00 | 0.00 | 53 | 1008.4 |
| 20260504212433 | 83 | 172 | 11.0 | 21.0 | 0.00 | 0.00 | 0.00 | 52 | 1008.4 |
| 20260504211733 | 83 | 77 | 8.0 | 21.0 | 0.00 | 0.00 | 0.00 | 53 | 1008.7 |
| 20260504211033 | 82 | 37 | 8.0 | 23.0 | 0.00 | 0.00 | 0.00 | 53 | 1008.7 |
| 20260504210333 | 83 | 79 | 19.0 | 23.0 | 0.00 | 0.00 | 0.00 | 53 | 1009.1 |
| 20260504205634 | 83 | 103 | 19.0 | 23.0 | 0.00 | 0.00 | 0.00 | 53 | 1009.1 |
| 20260504204933 | 82 | 30 | 5.0 | 23.0 | 0.00 | 0.00 | 0.00 | 54 | 1009.1 |
| 20260504204233 | 82 | 354 | 11.0 | 23.0 | 0.00 | 0.00 | 0.00 | 53 | 1009.4 |
| 20260504202833 | 82 | 89 | 22.0 | 23.0 | 0.00 | 0.00 | 0.00 | 53 | 1010.1 |
| 20260504200733 | 82 | 216 | 11.0 | 23.0 | 0.00 | 0.00 | 0.00 | 53 | 1010.1 |
| 20260504200033 | 82 | 13 | 5.0 | 23.0 | 0.00 | 0.00 | 0.00 | 52 | 1010.4 |
| 20260504194633 | 82 | 20 | 22.0 | 23.0 | 0.00 | 0.00 | 0.00 | 52 | 1010.7 |
| 20260504193933 | 82 | 22 | 2.0 | 23.0 | 0.00 | 0.00 | 0.00 | 51 | 1010.4 |
| 20260504193233 | 82 | 330 | 11.0 | 23.0 | 0.00 | 0.00 | 0.00 | 52 | 1010.7 |
| 20260504192532 | 82 | 16 | 5.0 | 23.0 | 0.00 | 0.00 | 0.00 | 52 | 1010.7 |
| 20260504191832 | 82 | 40 | 8.0 | 23.0 | 0.00 | 0.00 | 0.00 | 51 | 1011.1 |
| 20260504191133 | 82 | 13 | 11.0 | 23.0 | 0.00 | 0.00 | 0.00 | 51 | 1010.7 |
| 20260504190433 | 82 | 3 | 5.0 | 21.0 | 0.00 | 0.00 | 0.00 | 52 | 1011.1 |
| 20260504185032 | 81 | 14 | 5.0 | 21.0 | 0.00 | 0.00 | 0.00 | 52 | 1011.4 |
| 20260504184333 | 80 | 8 | 2.0 | 21.0 | 0.00 | 0.00 | 0.00 | 52 | 1011.1 |
| 20260504183633 | 80 | 19 | 5.0 | 21.0 | 0.00 | 0.00 | 0.00 | 52 | 1011.4 |
| 20260504182933 | 80 | 316 | 8.0 | 21.0 | 0.00 | 0.00 | 0.00 | 51 | 1011.4 |
| 20260504182233 | 80 | 42 | 14.0 | 21.0 | 0.00 | 0.00 | 0.00 | 51 | 1011.8 |
| 20260504181533 | 80 | 51 | 5.0 | 21.0 | 0.00 | 0.00 | 0.00 | 51 | 1011.8 |
| 20260504180832 | 80 | 5 | 8.0 | 21.0 | 0.00 | 0.00 | 0.00 | 50 | 1011.8 |
| 20260504180132 | 80 | 304 | 8.0 | 19.0 | 0.00 | 0.00 | 0.00 | 51 | 1011.8 |
| 20260504175433 | 80 | 77 | 8.0 | 19.0 | 0.00 | 0.00 | 0.00 | 51 | 1012.1 |
| 20260504173333 | 80 | 50 | 5.0 | 17.0 | 0.00 | 0.00 | 0.00 | 49 | 1012.4 |
| 20260504172632 | 80 | 52 | 14.0 | 17.0 | 0.00 | 0.00 | 0.00 | 49 | 1012.4 |
| 20260504171933 | 79 | 15 | 14.0 | 14.0 | 0.00 | 0.00 | 0.00 | 50 | 1012.4 |
| 20260504171232 | 79 | 72 | 11.0 | 14.0 | 0.00 | 0.00 | 0.00 | 49 | 1012.8 |
| 20260504170533 | 79 | 32 | 17.0 | 14.0 | 0.00 | 0.00 | 0.00 | 49 | 1012.8 |
| 20260504160237 | 75 | 96 | 19.0 | 17.0 | 0.00 | 0.00 | 0.00 | 55 | 1013.5 |
| 20260504150632 | 71 | 29 | 5.0 | 14.0 | 0.00 | 0.00 | 0.00 | 61 | 1014.1 |
| 20260504130732 | 64 | 27 | 5.0 | 10.0 | 0.00 | 0.00 | 0.00 | 68 | 1014.8 |
| 20260504110332 | 63 | 10 | 0.0 | 10.0 | 0.00 | 0.00 | 0.00 | 64 | 1013.8 |
| 20260504081531 | 65 | 44 | 5.0 | 10.0 | 0.00 | 0.00 | 0.00 | 59 | 1014.8 |
| 20260504080831 | 66 | 28 | 5.0 | 10.0 | 0.00 | 0.00 | 0.00 | 57 | 1014.8 |
| 20260504060231 | 67 | 8 | 0.0 | 12.0 | 0.00 | 0.00 | 0.00 | 54 | 1015.8 |
| 20260504050631 | 68 | 19 | 0.0 | 6.0 | 0.00 | 0.00 | 0.00 | 52 | 1016.5 |
| 20260504045231 | 68 | 10 | 0.0 | 6.0 | 0.00 | 0.00 | 0.00 | 52 | 1016.5 |
| 20260504044531 | 68 | 8 | 0.0 | 14.0 | 0.00 | 0.00 | 0.00 | 51 | 1016.5 |
| 20260504043831 | 68 | 17 | 5.0 | 14.0 | 0.00 | 0.00 | 0.00 | 51 | 1016.8 |
| 20260504043131 | 68 | 8 | 0.0 | 14.0 | 0.00 | 0.00 | 0.00 | 51 | 1016.8 |
| 20260504041731 | 69 | 9 | 0.0 | 14.0 | 0.00 | 0.00 | 0.00 | 50 | 1016.8 |
| 20260504041032 | 69 | 6 | 0.0 | 14.0 | 0.00 | 0.00 | 0.00 | 50 | 1016.8 |
| 20260504040331 | 69 | 12 | 2.0 | 14.0 | 0.00 | 0.00 | 0.00 | 49 | 1016.8 |
| 20260504035631 | 69 | 11 | 0.0 | 14.0 | 0.00 | 0.00 | 0.00 | 49 | 1016.8 |